Location: Kosice
(0.0000°N, 21.2500°E)
Time: 19:08:43
(UTC+01:00)

Cosmos 2058 - Pass Details

Date: 24 January 2021
Orbit: 561 x 584 km, 82.5° (Epoch: 02 March)

Event Time Altitude Azimuth Distance (km) Brightness Sun altitude
Rises 18:39:25 0° 164° (SSE) 2,803 6.5 -12.3°
Reaches altitude 10° 18:41:52 10° 152° (SSE) 1,902 5.5 -12.9°
Maximum altitude 18:45:25 27° 94° (E) 1,145 3.9 -13.7°
Enters shadow 18:46:43 23° 64° (ENE) 1,271 4.0 -14.0°
